Location: Thompson
(55.7500°N, 97.8670°W)
Time: 21:13:37
(UTC-05:00)

Amateur Radio Satellites - All Passes

Search period start: 20 October 2014 20:43
Search period end: 21 October 2014 20:43
Location: Thompson, 55.7500°N, 97.8670°W

Satellite Date Start Highest point End Downlink Frequencies (MHz)
Time Altitude Azimuth
ZACube-1 20 Oct 20:56:25 20:59:03 15° 51° (NE) 21:01:40 437.345 MHz
UKube-1 20 Oct 21:08:45 21:12:42 34° 62° (ENE) 21:16:40 145.840 MHz, 145.915 MHz
AO-40 20 Oct 21:12:25 23:46:25 19° 201° (SSW) 03:15:17 Beacon 2401.320
SO-50 20 Oct 21:28:04 21:32:43 49° 29° (NNE) 21:37:27 436.795 FM
UOSAT-12 20 Oct 21:35:51 21:40:01 29° 7° (N) 21:44:10 437.025 FM, 437.400 FM
FUNcube-1 20 Oct 21:40:34 21:44:32 30° 61° (ENE) 21:48:27 145.950 - 145.970 MHz USB
STRAND 1 20 Oct 21:47:57 21:52:46 40° 299° (WNW) 21:57:33 ?
OPAL 20 Oct 21:51:21 21:53:26 13° 322° (NW) 21:55:31 ?
Oscar 11 20 Oct 21:54:03 21:58:21 68° 71° (ENE) 22:02:40 145.825 FM, Beacon 2401.500 USB
KITSAT 1 20 Oct 22:13:16 22:21:23 81° 229° (SW) 22:29:27 435.175 FM
HO-68 20 Oct 22:14:55 22:21:44 45° 262° (W) 22:28:38 435.675 MHz FM
ZACube-1 20 Oct 22:30:10 22:34:45 70° 71° (ENE) 22:39:17 437.345 MHz
UKube-1 20 Oct 22:44:46 22:48:52 40° 262° (W) 22:53:00 145.840 MHz, 145.915 MHz
RS-15 20 Oct 23:05:44 23:14:57 33° 108° (ESE) 23:24:10 29.354 - 29.394 USB, Beacon 29.352 USB
SO-50 20 Oct 23:08:44 23:13:24 52° 231° (SW) 23:18:07 436.795 FM
FUNcube-1 20 Oct 23:16:16 23:20:45 51° 260° (W) 23:25:11 145.950 - 145.970 MHz USB
UOSAT-12 20 Oct 23:16:25 23:21:04 51° 30° (NNE) 23:25:41 437.025 FM, 437.400 FM
STRAND 1 20 Oct 23:29:07 23:30:43 11° 320° (NW) 23:32:19 ?
Oscar 11 20 Oct 23:31:49 23:34:59 20° 271° (W) 23:38:11 145.825 FM, Beacon 2401.500 USB
ZACube-1 21 Oct 00:08:10 00:11:37 21° 271° (W) 00:15:02 437.345 MHz
KITSAT 1 21 Oct 00:09:21 00:15:46 27° 253° (WSW) 00:22:10 435.175 FM
HO-68 21 Oct 00:10:09 00:11:30 11° 285° (WNW) 00:12:51 435.675 MHz FM
MaSat-1 21 Oct 00:48:55 00:50:33 12° 107° (ESE) 00:52:07 437.345 MHz
SO-50 21 Oct 00:51:30 00:53:00 11° 251° (WSW) 00:54:30 436.795 FM
UOSAT-12 21 Oct 00:56:43 01:01:17 48° 232° (SW) 01:05:47 437.025 FM, 437.400 FM
RS-15 21 Oct 01:14:59 01:25:56 85° 134° (SE) 01:37:00 29.354 - 29.394 USB, Beacon 29.352 USB
JAS-1B 21 Oct 01:26:40 01:29:01 12° 81° (E) 01:31:29 435.800 - 435.900 CW/SSB
Oscar 16 21 Oct 01:27:36 01:28:28 10° 80° (E) 01:29:20 437.025 USB, Beacon 2401.1428
AO-Echo 21 Oct 01:57:04 01:58:39 11° 80° (E) 02:00:14 ?
Oscar 19 21 Oct 02:19:19 02:23:35 26° 91° (E) 02:27:50 437.125 CW, 437.150 USB
MaSat-1 21 Oct 02:21:45 02:25:50 73° 125° (SE) 02:29:28 437.345 MHz
AO-27 21 Oct 02:26:53 02:29:52 15° 84° (E) 02:32:51 436.795 MHz FM
OPAL 21 Oct 02:42:13 02:43:14 11° 34° (NE) 02:44:14 ?
Oscar 16 21 Oct 03:03:58 03:09:02 55° 101° (E) 03:14:03 437.025 USB, Beacon 2401.1428
JAS-1B 21 Oct 03:15:00 03:21:01 55° 101° (ESE) 03:28:02 435.800 - 435.900 CW/SSB
Gurwin Techsat 1B 21 Oct 03:15:38 03:19:39 21° 88° (E) 03:23:37 435.225 FM
Uribyol 2 21 Oct 03:15:50 03:20:37 35° 95° (E) 03:25:21 436.500 FM
ITAMSAT 1 21 Oct 03:20:43 03:25:32 36° 96° (E) 03:30:20 435.822 SSB
RS-15 21 Oct 03:28:31 03:39:16 58° 345° (NNW) 03:50:15 29.354 - 29.394 USB, Beacon 29.352 USB
TMSAT-1 21 Oct 03:29:43 03:33:42 21° 88° (E) 03:37:40 436.925 FM
AO-Echo 21 Oct 03:33:24 03:38:35 56° 101° (E) 03:43:49 ?
Oscar 19 21 Oct 03:58:17 04:03:23 65° 292° (WNW) 04:08:26 437.125 CW, 437.150 USB
MaSat-1 21 Oct 03:58:44 04:01:55 23° 323° (NW) 04:04:49 437.345 MHz
AO-27 21 Oct 04:05:03 04:10:20 74° 105° (ESE) 04:15:34 436.795 MHz FM
OPAL 21 Oct 04:16:13 04:20:49 34° 56° (NE) 04:25:23 ?
AO-7 21 Oct 04:29:58 04:36:13 23° 86° (E) 04:42:27 29.400 - 29.500 MHz
Oscar 16 21 Oct 04:43:41 04:48:13 33° 302° (WNW) 04:52:45 437.025 USB, Beacon 2401.1428
Sapphire 21 Oct 04:48:39 04:51:44 16° 105° (ESE) 04:54:49 437.095 MHz 1200 baud AX-25 AFSK
Gurwin Techsat 1B 21 Oct 04:54:56 05:00:17 82° 289° (WNW) 05:05:37 435.225 FM
Uribyol 2 21 Oct 04:55:15 05:00:18 50° 296° (WNW) 05:05:19 436.500 FM
ITAMSAT 1 21 Oct 05:00:11 05:05:13 49° 296° (WNW) 05:10:14 435.822 SSB
JAS-1B 21 Oct 05:06:07 05:11:40 40° 301° (WNW) 05:18:00 435.800 - 435.900 CW/SSB
TMSAT-1 21 Oct 05:08:57 05:14:18 82° 289° (WNW) 05:19:37 436.925 FM
PCSat 21 Oct 05:10:14 05:14:26 23° 111° (ESE) 05:18:39 145.825 MHz
AO-Echo 21 Oct 05:12:30 05:17:10 34° 301° (WNW) 05:21:53 ?
Uosat F 21 Oct 05:14:58 05:19:13 26° 92° (E) 05:23:26 435.120 FM
Oscar 19 21 Oct 05:38:45 05:41:53 17° 313° (NW) 05:44:59 437.125 CW, 437.150 USB
RS-15 21 Oct 05:42:49 05:53:40 59° 17° (NNE) 06:04:49 29.354 - 29.394 USB, Beacon 29.352 USB
AO-27 21 Oct 05:45:08 05:49:26 26° 306° (NW) 05:53:43 436.795 MHz FM
STRAND 1 21 Oct 05:54:07 05:58:27 28° 56° (NE) 06:02:48 ?
OPAL 21 Oct 05:54:31 05:59:34 54° 256° (WSW) 06:04:35 ?
Hamsat 21 Oct 05:59:53 06:01:06 11° 83° (E) 06:02:19 145.90 MHz
JAS-2 21 Oct 06:01:47 06:08:18 31° 88° (E) 06:15:03 435.800 - 435.900 CW/SSB, 435.910 FM
AO-7 21 Oct 06:22:06 06:30:28 76° 109° (ESE) 06:38:49 29.400 - 29.500 MHz
Sapphire 21 Oct 06:28:51 06:34:13 66° 126° (SE) 06:39:37 437.095 MHz 1200 baud AX-25 AFSK
Gurwin Techsat 1B 21 Oct 06:35:43 06:39:36 21° 310° (NW) 06:43:27 435.225 FM
Uribyol 2 21 Oct 06:36:08 06:38:43 14° 317° (NW) 06:41:17 436.500 FM
ITAMSAT 1 21 Oct 06:41:08 06:43:38 14° 318° (NW) 06:46:08 435.822 SSB
TMSAT-1 21 Oct 06:49:42 06:53:34 21° 310° (NW) 06:57:25 436.925 FM
PCSat 21 Oct 06:51:49 06:57:16 89° 312° (NW) 07:02:45 145.825 MHz
Uosat F 21 Oct 06:53:24 06:58:25 63° 292° (WNW) 07:03:25 435.120 FM
JAS-1B 21 Oct 06:58:34 07:00:57 13° 325° (NW) 07:03:25 435.800 - 435.900 CW/SSB
STRAND 1 21 Oct 07:32:13 07:37:19 66° 257° (WSW) 07:42:29 ?
Hamsat 21 Oct 07:33:40 07:37:52 72° 103° (ESE) 07:42:03 145.90 MHz
OPAL 21 Oct 07:38:52 07:39:37 10° 277° (W) 07:40:21 ?
JAS-2 21 Oct 07:46:33 07:54:03 84° 289° (WNW) 08:01:56 435.800 - 435.900 CW/SSB, 435.910 FM
RS-15 21 Oct 07:55:51 08:06:55 82° 227° (SW) 08:18:24 29.354 - 29.394 USB, Beacon 29.352 USB
Sapphire 21 Oct 08:12:50 08:17:59 42° 329° (NNW) 08:23:10 437.095 MHz 1200 baud AX-25 AFSK
AO-7 21 Oct 08:15:17 08:22:50 41° 312° (NW) 08:30:22 29.400 - 29.500 MHz
SO-67 21 Oct 08:28:45 08:32:05 42° 99° (E) 08:35:23 435.3500 MHz FM
Uosat F 21 Oct 08:33:20 08:36:22 16° 314° (NW) 08:39:22 435.120 FM
PCSat 21 Oct 08:36:23 08:41:20 34° 336° (NNW) 08:46:18 145.825 MHz
Saudisat 1A 21 Oct 08:46:49 08:48:49 13° 112° (ESE) 08:50:48 436.775 MHz
MaSat-1 21 Oct 08:50:43 08:53:08 20° 34° (NE) 08:55:21 437.345 MHz
Hamsat 21 Oct 09:10:22 09:13:25 20° 303° (WNW) 09:16:28 145.90 MHz
STRAND 1 21 Oct 09:15:12 09:17:33 13° 277° (W) 09:19:55 ?
JAS-2 21 Oct 09:32:11 09:38:18 30° 310° (NW) 09:44:45 435.800 - 435.900 CW/SSB, 435.910 FM
HO-68 21 Oct 09:33:56 09:39:56 27° 90° (E) 09:45:53 435.675 MHz FM
Sapphire 21 Oct 09:58:14 10:02:44 25° 354° (N) 10:07:15 437.095 MHz 1200 baud AX-25 AFSK
SO-67 21 Oct 10:02:10 10:04:53 22° 298° (WNW) 10:07:35 435.3500 MHz FM
AO-7 21 Oct 10:08:15 10:13:37 19° 338° (NNW) 10:18:58 29.400 - 29.500 MHz
RS-15 21 Oct 10:08:39 10:17:53 32° 253° (WSW) 10:27:26 29.354 - 29.394 USB, Beacon 29.352 USB
PCSat 21 Oct 10:21:45 10:26:13 25° 1° (N) 10:30:42 145.825 MHz
Saudisat 1A 21 Oct 10:23:13 10:27:34 62° 132° (SE) 10:31:57 436.775 MHz
UKube-1 21 Oct 10:25:31 10:28:55 22° 91° (E) 10:32:18 145.840 MHz, 145.915 MHz
MaSat-1 21 Oct 10:26:17 10:29:10 48° 239° (WSW) 10:31:44 437.345 MHz
FUNcube-1 21 Oct 10:58:25 11:01:40 20° 89° (E) 11:04:49 145.950 - 145.970 MHz USB
Oscar 11 21 Oct 11:10:14 11:14:26 48° 99° (E) 11:18:36 145.825 FM, Beacon 2401.500 USB
JAS-2 21 Oct 11:18:33 11:21:14 12° 334° (NNW) 11:23:59 435.800 - 435.900 CW/SSB, 435.910 FM
HO-68 21 Oct 11:21:16 11:28:31 85° 292° (WNW) 11:35:44 435.675 MHz FM
Sapphire 21 Oct 11:42:51 11:47:42 31° 20° (NNE) 11:52:31 437.095 MHz 1200 baud AX-25 AFSK
ZACube-1 21 Oct 11:48:23 11:52:41 52° 100° (E) 11:56:50 437.345 MHz
AO-7 21 Oct 11:59:05 12:03:28 16° 6° (N) 12:07:51 29.400 - 29.500 MHz
UKube-1 21 Oct 12:01:10 12:05:31 63° 291° (WNW) 12:09:50 145.840 MHz, 145.915 MHz
Saudisat 1A 21 Oct 12:03:11 12:07:23 40° 334° (NNW) 12:11:35 436.775 MHz
PCSat 21 Oct 12:06:01 12:11:04 37° 27° (NNE) 12:16:05 145.825 MHz
Oscar 19 21 Oct 12:06:31 12:10:00 19° 49° (NE) 12:13:29 437.125 CW, 437.150 USB
AO-27 21 Oct 12:16:02 12:18:23 13° 42° (NE) 12:20:44 436.795 MHz FM
JAS-1B 21 Oct 12:20:44 12:25:06 23° 49° (NE) 12:29:27 435.800 - 435.900 CW/SSB
FUNcube-1 21 Oct 12:34:10 12:38:31 65° 290° (WNW) 12:42:44 145.950 - 145.970 MHz USB
Oscar 11 21 Oct 12:46:46 12:50:28 28° 299° (WNW) 12:54:09 145.825 FM, Beacon 2401.500 USB
Oscar 16 21 Oct 12:50:03 12:54:40 34° 59° (ENE) 12:59:17 437.025 USB, Beacon 2401.1428
KITSAT 1 21 Oct 12:51:37 12:57:35 23° 105° (ESE) 13:03:34 435.175 FM
Uribyol 2 21 Oct 13:03:18 13:07:28 25° 53° (NE) 13:11:38 436.500 FM
Gurwin Techsat 1B 21 Oct 13:06:50 13:10:08 17° 46° (NE) 13:13:26 435.225 FM
ITAMSAT 1 21 Oct 13:08:16 13:12:28 25° 54° (NE) 13:16:41 435.822 SSB
HO-68 21 Oct 13:09:31 13:15:28 29° 315° (NW) 13:21:25 435.675 MHz FM
AO-Echo 21 Oct 13:16:13 13:20:29 30° 58° (ENE) 13:24:53 ?
TMSAT-1 21 Oct 13:20:38 13:23:54 17° 46° (NE) 13:27:10 436.925 FM
ZACube-1 21 Oct 13:25:12 13:28:52 27° 301° (WNW) 13:32:27 437.345 MHz
Sapphire 21 Oct 13:26:28 13:31:57 74° 44° (NE) 13:37:23 437.095 MHz 1200 baud AX-25 AFSK
UKube-1 21 Oct 13:38:46 13:40:56 14° 312° (NW) 13:43:06 145.840 MHz, 145.915 MHz
Oscar 19 21 Oct 13:43:29 13:48:38 75° 70° (ENE) 13:53:47 437.125 CW, 437.150 USB
Saudisat 1A 21 Oct 13:44:10 13:47:55 26° 358° (N) 13:51:41 436.775 MHz
AO-7 21 Oct 13:47:17 13:53:34 25° 33° (NNE) 13:59:52 29.400 - 29.500 MHz
PCSat 21 Oct 13:49:33 13:55:01 82° 230° (SW) 14:00:27 145.825 MHz
AO-27 21 Oct 13:51:48 13:56:46 47° 63° (ENE) 14:01:47 436.795 MHz FM
JAS-1B 21 Oct 14:09:19 14:15:13 88° 252° (WSW) 14:20:57 435.800 - 435.900 CW/SSB
FUNcube-1 21 Oct 14:11:58 14:14:06 14° 311° (NW) 14:16:14 145.950 - 145.970 MHz USB
Oscar 16 21 Oct 14:28:50 14:33:53 52° 260° (W) 14:38:57 437.025 USB, Beacon 2401.1428
Uribyol 2 21 Oct 14:41:13 14:46:28 80° 254° (WSW) 14:51:45 436.500 FM
JAS-2 21 Oct 14:43:01 14:45:16 12° 25° (NNE) 14:47:36 435.800 - 435.900 CW/SSB, 435.910 FM
KITSAT 1 21 Oct 14:43:44 14:51:46 73° 128° (SE) 14:59:50 435.175 FM
Gurwin Techsat 1B 21 Oct 14:43:58 14:49:13 64° 68° (ENE) 14:54:30 435.225 FM
Oscar 10/S400 21 Oct 14:44:53 14:56:45 19° 145° (SE) 15:12:30 145.825 - 145.975 CW/USB, Beacon 145.810 USB
ITAMSAT 1 21 Oct 14:46:17 14:51:31 78° 254° (WSW) 14:56:48 435.822 SSB
AO-Echo 21 Oct 14:54:11 14:59:01 58° 259° (W) 15:04:03 ?
TMSAT-1 21 Oct 14:57:41 15:02:55 63° 68° (ENE) 15:08:12 436.925 FM
HO-68 21 Oct 14:58:02 15:01:03 13° 339° (NNW) 15:04:03 435.675 MHz FM
Uosat F 21 Oct 14:59:00 15:02:24 19° 49° (NE) 15:05:49 435.120 FM
Sapphire 21 Oct 15:10:20 15:15:00 30° 246° (WSW) 15:19:38 437.095 MHz 1200 baud AX-25 AFSK
SO-50 21 Oct 15:10:28 15:14:44 41° 126° (SE) 15:19:08 436.795 FM
Saudisat 1A 21 Oct 15:24:24 15:28:31 36° 22° (NNE) 15:32:38 436.775 MHz
Oscar 19 21 Oct 15:24:33 15:28:33 22° 271° (W) 15:32:33 437.125 CW, 437.150 USB
AO-27 21 Oct 15:31:37 15:36:26 37° 264° (W) 15:41:19 436.795 MHz FM
PCSat 21 Oct 15:33:51 15:37:43 20° 251° (WSW) 15:41:34 145.825 MHz
AO-7 21 Oct 15:36:53 15:44:57 60° 57° (ENE) 15:53:03 29.400 - 29.500 MHz
JAS-1B 21 Oct 16:03:00 16:06:54 18° 274° (W) 16:10:44 435.800 - 435.900 CW/SSB
ISS 21 Oct 16:13:44 16:16:26 23° 156° (SSE) 16:19:08 145.800 FM
JAS-2 21 Oct 16:22:55 16:28:11 30° 50° (NE) 16:34:01 435.800 - 435.900 CW/SSB, 435.910 FM
Uribyol 2 21 Oct 16:23:33 16:26:49 16° 275° (W) 16:30:05 436.500 FM
Gurwin Techsat 1B 21 Oct 16:25:06 16:29:37 28° 268° (W) 16:34:09 435.225 FM
ITAMSAT 1 21 Oct 16:28:47 16:31:55 16° 275° (W) 16:35:04 435.822 SSB
Uosat F 21 Oct 16:35:28 16:40:29 76° 70° (ENE) 16:45:33 435.120 FM
AO-Echo 21 Oct 16:37:45 16:38:59 11° 280° (W) 16:40:14 ?
TMSAT-1 21 Oct 16:38:45 16:43:16 28° 268° (W) 16:47:49 436.925 FM
KITSAT 1 21 Oct 16:39:46 16:47:40 53° 334° (NNW) 16:55:35 435.175 FM
HO-68 21 Oct 16:44:47 16:45:50 10° 6° (N) 16:46:52 435.675 MHz FM
SO-50 21 Oct 16:50:43 16:55:14 55° 328° (NNW) 16:59:55 436.795 FM
UOSAT-12 21 Oct 16:54:06 16:58:30 42° 126° (SE) 17:02:58 437.025 FM, 437.400 FM
Hamsat 21 Oct 16:59:27 17:02:42 22° 58° (ENE) 17:05:57 145.90 MHz
Saudisat 1A 21 Oct 17:04:02 17:08:29 79° 224° (SW) 17:12:55 436.775 MHz
AO-7 21 Oct 17:30:08 17:38:03 48° 260° (W) 17:46:02 29.400 - 29.500 MHz
ISS 21 Oct 17:49:30 17:52:39 40° 175° (S) 17:55:50 145.800 FM
OPAL 21 Oct 17:57:15 18:01:05 22° 92° (E) 18:04:52 ?
JAS-2 21 Oct 18:06:32 18:12:34 83° 254° (WSW) 18:19:31 435.800 - 435.900 CW/SSB, 435.910 FM
Uosat F 21 Oct 18:16:01 18:19:51 22° 270° (W) 18:23:43 435.120 FM
HO-68 21 Oct 18:26:21 18:30:52 18° 32° (NNE) 18:35:23 435.675 MHz FM
SO-50 21 Oct 18:32:33 18:36:40 29° 352° (N) 18:40:52 436.795 FM
UOSAT-12 21 Oct 18:33:59 18:38:37 55° 328° (NNW) 18:43:18 437.025 FM, 437.400 FM
Hamsat 21 Oct 18:34:09 18:38:21 63° 258° (WSW) 18:42:32 145.90 MHz
KITSAT 1 21 Oct 18:37:10 18:44:45 41° 2° (N) 18:52:18 435.175 FM
Saudisat 1A 21 Oct 18:44:32 18:47:26 17° 245° (WSW) 18:50:20 436.775 MHz
SO-67 21 Oct 19:08:18 19:11:38 48° 70° (ENE) 19:14:59 435.3500 MHz FM
ISS 21 Oct 19:25:57 19:28:59 32° 195° (SSW) 19:32:01 145.800 FM
AO-7 21 Oct 19:30:18 19:33:13 12° 285° (WNW) 19:36:09 29.400 - 29.500 MHz
STRAND 1 21 Oct 19:35:27 19:39:43 25° 91° (E) 19:43:58 ?
OPAL 21 Oct 19:35:31 19:40:33 76° 293° (WNW) 19:45:30 ?
JAS-2 21 Oct 19:54:27 19:58:54 21° 279° (W) 20:03:45 435.800 - 435.900 CW/SSB, 435.910 FM
UKube-1 21 Oct 19:55:34 19:56:45 11° 45° (NE) 19:57:56 145.840 MHz, 145.915 MHz
HO-68 21 Oct 20:10:17 20:17:02 47° 56° (NE) 20:23:49 435.675 MHz FM
SO-50 21 Oct 20:14:03 20:18:21 33° 16° (NNE) 20:22:45 436.795 FM
UOSAT-12 21 Oct 20:15:26 20:19:37 30° 351° (N) 20:23:49 437.025 FM, 437.400 FM
